Time_in_sec,Latitude,Longitude,Altitude,Nbsat_max_qualitysignal,Nbsat_locked,valid_data
1314270761.20082879,-0.00007556,0.00007158,-564.58074951,0,0,0
1314271012.64273310,-0.00007917,0.00006407,-2536.32275391,0,0,0
1314271012.70047379,-0.00007917,0.00006407,-2536.70043945,0,0,0
1314271012.75244904,-0.00007916,0.00006407,-2537.26684570,0,0,0
1314271012.80080795,-0.00007910,0.00006411,-2537.73901367,0,0,0
1314271012.85249901,-0.00007916,0.00006406,-2538.21093750,0,0,0
1314271012.90217423,-0.00007910,0.00006411,-2538.68334961,0,0,0
1314271012.95249796,-0.00007916,0.00006406,-2539.15527344,0,0,0
1314271013.00049543,-0.00007909,0.00006411,-2539.62768555,0,0,0
1314271013.04047203,-0.00007915,0.00006406,-2540.09960938,0,0,0
1314271013.10161662,-0.00007915,0.00006406,-2540.47729492,0,0,0
1314271013.15245199,-0.00007915,0.00006406,-2541.04418945,0,0,0
1314271013.20051074,-0.00007908,0.00006410,-2541.51660156,0,0,0
1314271013.25360298,-0.00007914,0.00006405,-2541.98876953,0,0,0
1314271013.30200696,-0.00007908,0.00006410,-2542.46118164,0,0,0
1314271013.34960341,-0.00007914,0.00006405,-2542.93334961,0,0,0
1314271013.40048981,-0.00007907,0.00006410,-2543.40600586,0,0,0
1314271013.45245671,-0.00007913,0.00006405,-2543.87817383,0,0,0
1314271013.50047326,-0.00007907,0.00006410,-2544.35083008,0,0,0
1314271013.55371237,-0.00007913,0.00006405,-2544.82299805,0,0,0
1314271013.60047174,-0.00007906,0.00006410,-2545.29565430,0,0,0
1314271013.65361309,-0.00007912,0.00006405,-2545.76806641,0,0,0
1314271013.69979453,-0.00007906,0.00006409,-2546.24072266,0,0,0
1314271013.74984503,-0.00007912,0.00006404,-2546.71313477,0,0,0
1314271013.80046320,-0.00007906,0.00006409,-2547.18603516,0,0,0
1314271013.84948206,-0.00007912,0.00006404,-2547.65820312,0,0,0
1314271013.90088201,-0.00007905,0.00006409,-2548.13134766,0,0,0
1314271013.95246363,-0.00007911,0.00006404,-2548.60375977,0,0,0
1314271013.98984289,-0.00007905,0.00006409,-2549.07666016,0,0,0
1314271014.04951859,-0.00007904,0.00006409,-2549.45483398,0,0,0
1314271014.10171509,-0.00007904,0.00006408,-2550.02197266,0,0,0
1314271014.14961123,-0.00007910,0.00006403,-2550.49462891,0,0,0
1314271014.20151234,-0.00007904,0.00006408,-2550.96777344,0,0,0
1314271014.25246549,-0.00007910,0.00006403,-2551.44018555,0,0,0
1314271014.30159974,-0.00007903,0.00006408,-2551.91333008,0,0,0
1314271014.34955001,-0.00007909,0.00006403,-2552.38598633,0,0,0
1314271014.40066767,-0.00007903,0.00006408,-2552.85913086,0,0,0
1314271014.45245504,-0.00007909,0.00006403,-2553.33178711,0,0,0
1314271014.49856353,-0.00007902,0.00006407,-2553.80493164,0,0,0
1314271014.55250406,-0.00007908,0.00006402,-2554.27783203,0,0,0
1314271014.60050106,-0.00007902,0.00006407,-2554.75097656,0,0,0
1314271014.65245700,-0.00007908,0.00006402,-2555.22387695,0,0,0
1314271014.70046067,-0.00007901,0.00006407,-2555.69726562,0,0,0
1314271014.74955845,-0.00007908,0.00006402,-2556.17016602,0,0,0
1314271014.80043745,-0.00007901,0.00006407,-2556.64355469,0,0,0
1314271014.84878874,-0.00007907,0.00006402,-2557.11645508,0,0,0
1314271014.90398526,-0.00007900,0.00006406,-2557.59008789,0,0,0
1314271014.94848824,-0.00007907,0.00006401,-2558.06298828,0,0,0
1314271015.00056505,-0.00007900,0.00006406,-2558.53637695,0,0,0
1314271015.05023408,-0.00007906,0.00006401,-2559.00952148,0,0,0
1314271015.10044527,-0.00007900,0.00006406,-2559.48315430,0,0,0
1314271015.15041184,-0.00007906,0.00006401,-2559.95605469,0,0,0
1314271015.20067787,-0.00007899,0.00006406,-2560.42993164,0,0,0
1314271015.24848533,-0.00007905,0.00006401,-2560.90283203,0,0,0
1314271015.29850483,-0.00007899,0.00006405,-2561.37670898,0,0,0
1314271015.34974980,-0.00007905,0.00006400,-2561.84985352,0,0,0
1314271015.40052462,-0.00007898,0.00006405,-2562.32348633,0,0,0
1314271015.44845295,-0.00007905,0.00006400,-2562.79687500,0,0,0
1314271015.50050116,-0.00007898,0.00006405,-2563.27050781,0,0,0
1314271015.54844904,-0.00007904,0.00006400,-2563.74389648,0,0,0
1314271015.59270573,-0.00007897,0.00006405,-2564.21777344,0,0,0
1314271015.65248227,-0.00007897,0.00006405,-2564.59667969,0,0,0
1314271015.69829965,-0.00007897,0.00006404,-2565.16503906,0,0,0
1314271015.75246453,-0.00007903,0.00006399,-2565.63842773,0,0,0
1314271015.80059075,-0.00007896,0.00006404,-2566.11254883,0,0,0
1314271015.85253930,-0.00007903,0.00006399,-2566.58593750,0,0,0
1314271015.90132618,-0.00007896,0.00006404,-2567.06005859,0,0,0
1314271015.95244694,-0.00007902,0.00006399,-2567.53369141,0,0,0
1314271016.00054026,-0.00007895,0.00006404,-2568.00756836,0,0,0
1314271016.05259323,-0.00007902,0.00006399,-2568.48120117,0,0,0
1314271016.10220718,-0.00007895,0.00006403,-2568.95556641,0,0,0
1314271016.14974952,-0.00007902,0.00006398,-2569.42919922,0,0,0
1314271016.20055652,-0.00007895,0.00006403,-2569.90332031,0,0,0
1314271016.25401831,-0.00007901,0.00006398,-2570.37695312,0,0,0
1314271016.30057263,-0.00007894,0.00006403,-2570.85131836,0,0,0
1314271016.34951758,-0.00007901,0.00006398,-2571.32519531,0,0,0
1314271016.40150428,-0.00007894,0.00006403,-2571.79956055,0,0,0
1314271016.44949293,-0.00007900,0.00006398,-2572.27343750,0,0,0
1314271016.50446010,-0.00007893,0.00006402,-2572.74780273,0,0,0
1314271016.54955125,-0.00007900,0.00006397,-2573.22167969,0,0,0
1314271016.60148954,-0.00007893,0.00006402,-2573.69628906,0,0,0
1314271016.64954519,-0.00007899,0.00006397,-2574.17016602,0,0,0
1314271016.70093560,-0.00007892,0.00006402,-2574.64477539,0,0,0
1314271016.74994659,-0.00007899,0.00006397,-2575.11865234,0,0,0
1314271016.80046177,-0.00007892,0.00006402,-2575.59326172,0,0,0
1314271016.84960341,-0.00007898,0.00006397,-2576.06738281,0,0,0
1314271016.90071559,-0.00007891,0.00006401,-2576.54223633,0,0,0
1314271016.95246720,-0.00007898,0.00006396,-2577.01635742,0,0,0
1314271017.00153637,-0.00007891,0.00006401,-2577.49096680,0,0,0
1314271017.05246711,-0.00007897,0.00006396,-2577.96533203,0,0,0
1314271017.10074544,-0.00007890,0.00006401,-2578.44018555,0,0,0
1314271017.14916015,-0.00007897,0.00006396,-2578.91430664,0,0,0
1314271017.20178795,-0.00007890,0.00006400,-2579.38916016,0,0,0
1314271017.24996352,-0.00007896,0.00006395,-2579.86352539,0,0,0
1314271017.30449438,-0.00007889,0.00006400,-2580.33837891,0,0,0
1314271017.35246015,-0.00007896,0.00006395,-2580.81274414,0,0,0
1314271017.40053058,-0.00007889,0.00006400,-2581.28784180,0,0,0
1314271017.44952178,-0.00007895,0.00006395,-2581.76220703,0,0,0
1314271017.50047922,-0.00007888,0.00006400,-2582.23706055,0,0,0
1314271017.54960895,-0.00007895,0.00006395,-2582.71166992,0,0,0
1314271017.60151267,-0.00007888,0.00006399,-2583.18676758,0,0,0
1314271017.65044093,-0.00007894,0.00006394,-2583.66113281,0,0,0
1314271017.70451689,-0.00007887,0.00006399,-2584.13623047,0,0,0
1314271017.74931669,-0.00007894,0.00006394,-2584.61083984,0,0,0
1314271017.80046797,-0.00007887,0.00006399,-2585.08618164,0,0,0
1314271017.84049439,-0.00007893,0.00006394,-2585.56079102,0,0,0
1314271017.90051675,-0.00007893,0.00006394,-2585.94091797,0,0,0
1314271017.94848156,-0.00007893,0.00006393,-2586.51074219,0,0,0
1314271018.00056362,-0.00007886,0.00006398,-2586.98608398,0,0,0
1314271018.04859638,-0.00007893,0.00006393,-2587.46093750,0,0,0
1314271018.10146785,-0.00007885,0.00006398,-2587.93627930,0,0,0
1314271018.14845920,-0.00007892,0.00006393,-2588.41113281,0,0,0
1314271018.20048523,-0.00007885,0.00006398,-2588.88647461,0,0,0
1314271018.24849439,-0.00007892,0.00006393,-2589.36157227,0,0,0
1314271018.30046511,-0.00007884,0.00006397,-2589.83691406,0,0,0
1314271018.34950995,-0.00007891,0.00006392,-2590.31201172,0,0,0
1314271018.40102887,-0.00007884,0.00006397,-2590.78759766,0,0,0
1314271018.44854927,-0.00007891,0.00006392,-2591.26245117,0,0,0
1314271018.49930668,-0.00007883,0.00006397,-2591.73803711,0,0,0
1314271018.55037069,-0.00007890,0.00006392,-2592.21313477,0,0,0
1314271018.60052156,-0.00007883,0.00006397,-2592.68872070,0,0,0
1314271018.64849067,-0.00007890,0.00006392,-2593.16381836,0,0,0
1314271018.70048785,-0.00007882,0.00006396,-2593.63964844,0,0,0
1314271018.75019002,-0.00007889,0.00006391,-2594.11474609,0,0,0
1314271018.80053306,-0.00007882,0.00006396,-2594.59033203,0,0,0
1314271018.85352516,-0.00007889,0.00006391,-2595.06567383,0,0,0
1314271018.90464973,-0.00007881,0.00006396,-2595.54150391,0,0,0
1314271018.95022321,-0.00007888,0.00006391,-2596.01684570,0,0,0
1314271019.00094438,-0.00007881,0.00006395,-2596.49267578,0,0,0
1314271019.04945254,-0.00007888,0.00006390,-2596.96801758,0,0,0
1314271019.10045981,-0.00007880,0.00006395,-2597.44384766,0,0,0
1314271019.14992952,-0.00007887,0.00006390,-2597.91918945,0,0,0
1314271019.20046115,-0.00007880,0.00006395,-2598.39526367,0,0,0
1314271019.24905229,-0.00007887,0.00006390,-2598.87060547,0,0,0
1314271019.30385113,-0.00007879,0.00006395,-2599.34667969,0,0,0
1314271019.35249138,-0.00007886,0.00006390,-2599.82226562,0,0,0
1314271019.40064549,-0.00007879,0.00006394,-2600.29833984,0,0,0
1314271019.45246625,-0.00007886,0.00006389,-2600.77392578,0,0,0
1314271019.50152397,-0.00007878,0.00006394,-2601.25024414,0,0,0
1314271019.54992628,-0.00007885,0.00006389,-2601.72583008,0,0,0
1314271019.60067916,-0.00007878,0.00006394,-2602.20214844,0,0,0
1314271019.64959955,-0.00007885,0.00006389,-2602.67797852,0,0,0
1314271019.70170474,-0.00007877,0.00006394,-2603.15429688,0,0,0
1314271019.75356841,-0.00007884,0.00006388,-2603.63012695,0,0,0
1314271019.80047917,-0.00007877,0.00006393,-2604.10668945,0,0,0
1314271019.85250616,-0.00007884,0.00006388,-2604.58251953,0,0,0
1314271019.90048027,-0.00007876,0.00006393,-2605.05908203,0,0,0
1314271019.94952440,-0.00007883,0.00006388,-2605.53491211,0,0,0
1314271020.00044870,-0.00007876,0.00006393,-2606.01147461,0,0,0
1314271020.05361390,-0.00007883,0.00006388,-2606.48754883,0,0,0
1314271020.10177946,-0.00007875,0.00006392,-2606.96435547,0,0,0
1314271020.15256858,-0.00007882,0.00006387,-2607.44042969,0,0,0
1314271020.20049620,-0.00007875,0.00006392,-2607.91699219,0,0,0
1314271020.25248122,-0.00007882,0.00006387,-2608.39331055,0,0,0
1314271020.30049396,-0.00007874,0.00006392,-2608.86987305,0,0,0
1314271020.34964252,-0.00007881,0.00006387,-2609.34619141,0,0,0
1314271020.40047932,-0.00007874,0.00006392,-2609.82299805,0,0,0
1314271020.45258427,-0.00007881,0.00006387,-2610.29931641,0,0,0
1314271020.49961710,-0.00007873,0.00006391,-2610.77612305,0,0,0
1314271020.54960227,-0.00007880,0.00006386,-2611.25244141,0,0,0
1314271020.60152102,-0.00007873,0.00006391,-2611.72949219,0,0,0
1314271020.64851356,-0.00007880,0.00006386,-2612.20605469,0,0,0
1314271020.70080209,-0.00007873,0.00006391,-2612.68310547,0,0,0
1314271020.74949479,-0.00007879,0.00006386,-2613.15942383,0,0,0
1314271020.80098319,-0.00007872,0.00006390,-2613.63671875,0,0,0
1314271020.84865022,-0.00007879,0.00006385,-2614.11303711,0,0,0
1314271020.90154290,-0.00007872,0.00006390,-2614.59033203,0,0,0
1314271020.94860888,-0.00007878,0.00006385,-2615.06689453,0,0,0
1314271021.00110269,-0.00007871,0.00006390,-2615.54394531,0,0,0
1314271021.04854727,-0.00007878,0.00006385,-2616.02050781,0,0,0
1314271021.10150075,-0.00007871,0.00006390,-2616.49780273,0,0,0
1314271021.14850378,-0.00007877,0.00006385,-2616.97460938,0,0,0
1314271021.20046878,-0.00007870,0.00006389,-2617.45190430,0,0,0
1314271021.24921060,-0.00007877,0.00006384,-2617.92871094,0,0,0
1314271021.29841661,-0.00007870,0.00006389,-2618.40600586,0,0,0
1314271021.34917903,-0.00007876,0.00006384,-2618.88281250,0,0,0
1314271021.40050960,-0.00007869,0.00006389,-2619.36035156,0,0,0
1314271021.44848585,-0.00007876,0.00006384,-2619.83740234,0,0,0
1314271021.50048661,-0.00007869,0.00006389,-2620.31494141,0,0,0
1314271021.54995036,-0.00007875,0.00006384,-2620.79174805,0,0,0
1314271021.60150313,-0.00007868,0.00006388,-2621.26953125,0,0,0
1314271021.65331101,-0.00007875,0.00006383,-2621.74658203,0,0,0
1314271021.70160770,-0.00007868,0.00006388,-2622.22412109,0,0,0
1314271021.74848628,-0.00007874,0.00006383,-2622.70117188,0,0,0
1314271021.80153441,-0.00007867,0.00006388,-2623.17895508,0,0,0
1314271021.84849191,-0.00007874,0.00006383,-2623.65625000,0,0,0
1314271021.90146828,-0.00007867,0.00006388,-2624.13403320,0,0,0
1314271021.95246673,-0.00007873,0.00006382,-2624.61108398,0,0,0
1314271022.00044084,-0.00007866,0.00006387,-2625.08886719,0,0,0
1314271022.04971933,-0.00007873,0.00006382,-2625.56616211,0,0,0
1314271022.10195470,-0.00007866,0.00006387,-2626.04418945,0,0,0
1314271022.14952254,-0.00007872,0.00006382,-2626.52148438,0,0,0
1314271022.20060802,-0.00007865,0.00006387,-2626.99951172,0,0,0
1314271022.25246644,-0.00007872,0.00006382,-2627.47705078,0,0,0
1314271022.30047631,-0.00007865,0.00006386,-2627.95507812,0,0,0
1314271022.35005975,-0.00007871,0.00006381,-2628.43261719,0,0,0
1314271022.40161347,-0.00007864,0.00006386,-2628.91088867,0,0,0
1314271022.44983053,-0.00007871,0.00006381,-2629.38842773,0,0,0
1314271022.50194383,-0.00007864,0.00006386,-2629.86645508,0,0,0
1314271022.54931998,-0.00007870,0.00006381,-2630.34423828,0,0,0
1314271022.60060263,-0.00007863,0.00006386,-2630.82250977,0,0,0
1314271022.64059067,-0.00007870,0.00006381,-2631.30029297,0,0,0
1314271022.70048141,-0.00007869,0.00006380,-2631.68261719,0,0,0
1314271022.74956536,-0.00007869,0.00006380,-2632.25634766,0,0,0
1314271022.80054021,-0.00007862,0.00006385,-2632.73486328,0,0,0
1314271022.85360599,-0.00007869,0.00006380,-2633.21264648,0,0,0
1314271022.90193081,-0.00007862,0.00006385,-2633.69116211,0,0,0
1314271022.95245552,-0.00007868,0.00006380,-2634.16894531,0,0,0
1314271023.00059271,-0.00007861,0.00006385,-2634.64746094,0,0,0
1314271023.05247426,-0.00007867,0.00006379,-2635.12548828,0,0,0
1314271023.10147977,-0.00007860,0.00006384,-2635.60400391,0,0,0
1314271023.14974689,-0.00007867,0.00006379,-2636.08203125,0,0,0
1314271023.20151234,-0.00007860,0.00006384,-2636.56079102,0,0,0
1314271023.24930120,-0.00007866,0.00006379,-2637.03881836,0,0,0
1314271023.29975963,-0.00007859,0.00006384,-2637.51733398,0,0,0
1314271023.34922409,-0.00007866,0.00006379,-2637.99560547,0,0,0
1314271023.40061259,-0.00007859,0.00006384,-2638.47436523,0,0,0
1314271023.45247626,-0.00007865,0.00006378,-2638.95239258,0,0,0
1314271023.50050354,-0.00007858,0.00006383,-2639.43139648,0,0,0
1314271023.54948425,-0.00007865,0.00006378,-2639.90966797,0,0,0
1314271023.60147023,-0.00007858,0.00006383,-2640.38842773,0,0,0
1314271023.64935303,-0.00007864,0.00006378,-2640.86669922,0,0,0
1314271023.70153666,-0.00007857,0.00006383,-2641.34570312,0,0,0
1314271023.74959445,-0.00007864,0.00006378,-2641.82421875,0,0,0
1314271023.80159140,-0.00007857,0.00006383,-2642.30322266,0,0,0
1314271023.84850478,-0.00007863,0.00006377,-2642.78173828,0,0,0
1314271023.90149689,-0.00007856,0.00006382,-2643.26074219,0,0,0
1314271023.95244932,-0.00007863,0.00006377,-2643.73925781,0,0,0
1314271024.00074244,-0.00007856,0.00006382,-2644.21850586,0,0,0
1314271024.04956317,-0.00007862,0.00006377,-2644.69702148,0,0,0
1314271024.09836650,-0.00007855,0.00006382,-2645.17626953,0,0,0
1314271024.14892578,-0.00007861,0.00006377,-2645.65478516,0,0,0
1314271024.20081782,-0.00007855,0.00006382,-2646.13403320,0,0,0
1314271024.24847579,-0.00007861,0.00006377,-2646.61279297,0,0,0
1314271024.30065012,-0.00007854,0.00006381,-2647.09228516,0,0,0
1314271024.34979892,-0.00007860,0.00006376,-2647.57104492,0,0,0
1314271024.40070128,-0.00007854,0.00006381,-2648.05029297,0,0,0
1314271024.44962430,-0.00007860,0.00006376,-2648.52905273,0,0,0
1314271024.49822521,-0.00007853,0.00006381,-2649.00854492,0,0,0
1314271024.54946470,-0.00007859,0.00006376,-2649.48754883,0,0,0
1314271024.60048437,-0.00007853,0.00006381,-2649.96704102,0,0,0
1314271024.65246320,-0.00007859,0.00006376,-2650.44604492,0,0,0
1314271024.70222926,-0.00007852,0.00006381,-2650.92578125,0,0,0
1314271024.74968171,-0.00007858,0.00006375,-2651.40478516,0,0,0
1314271024.80044270,-0.00007852,0.00006380,-2651.88452148,0,0,0
1314271024.85010386,-0.00007858,0.00006375,-2652.36376953,0,0,0
1314271024.90212584,-0.00007851,0.00006380,-2652.84350586,0,0,0
1314271024.95247626,-0.00007857,0.00006375,-2653.32275391,0,0,0
1314271025.00050330,-0.00007851,0.00006380,-2653.80249023,0,0,0
1314271025.05254292,-0.00007857,0.00006375,-2654.28173828,0,0,0
1314271025.10048699,-0.00007850,0.00006380,-2654.76171875,0,0,0
1314271025.14946485,-0.00007856,0.00006374,-2655.24096680,0,0,0
1314271025.20160341,-0.00007850,0.00006379,-2655.72094727,0,0,0
1314271025.24952912,-0.00007856,0.00006374,-2656.20043945,0,0,0
1314271025.30448771,-0.00007849,0.00006379,-2656.68041992,0,0,0
1314271025.34957147,-0.00007855,0.00006374,-2657.15991211,0,0,0
1314271025.40083909,-0.00007849,0.00006379,-2657.63989258,0,0,0
1314271025.45249629,-0.00007855,0.00006374,-2658.11962891,0,0,0
1314271025.50058603,-0.00007848,0.00006379,-2658.59960938,0,0,0
1314271025.54963064,-0.00007854,0.00006374,-2659.07934570,0,0,0
1314271025.60150862,-0.00007848,0.00006379,-2659.55957031,0,0,0
1314271025.65259290,-0.00007854,0.00006373,-2660.03930664,0,0,0
1314271025.70047116,-0.00007847,0.00006378,-2660.51953125,0,0,0
1314271025.75003624,-0.00007853,0.00006373,-2660.99926758,0,0,0
1314271025.80052543,-0.00007847,0.00006378,-2661.47949219,0,0,0
1314271025.84885764,-0.00007853,0.00006373,-2661.95922852,0,0,0
1314271025.90058017,-0.00007846,0.00006378,-2662.43969727,0,0,0
1314271025.94973469,-0.00007852,0.00006373,-2662.91943359,0,0,0
1314271026.00047207,-0.00007846,0.00006378,-2663.39990234,0,0,0
1314271026.04928708,-0.00007852,0.00006373,-2663.87988281,0,0,0
1314271026.10435915,-0.00007845,0.00006377,-2664.36059570,0,0,0
1314271026.14948440,-0.00007851,0.00006372,-2664.84057617,0,0,0
1314271026.20161343,-0.00007845,0.00006377,-2665.32104492,0,0,0
1314271026.25248170,-0.00007851,0.00006372,-2665.80126953,0,0,0
1314271026.30059266,-0.00007845,0.00006377,-2666.28198242,0,0,0
1314271026.34967637,-0.00007850,0.00006372,-2666.76220703,0,0,0
1314271026.40162230,-0.00007844,0.00006377,-2667.24291992,0,0,0
1314271026.44962049,-0.00007850,0.00006372,-2667.72314453,0,0,0
1314271026.50107574,-0.00007844,0.00006377,-2668.20385742,0,0,0
1314271026.54960227,-0.00007849,0.00006371,-2668.68432617,0,0,0
1314271026.60155630,-0.00007843,0.00006376,-2669.16503906,0,0,0
1314271026.65269089,-0.00007849,0.00006371,-2669.64550781,0,0,0
1314271026.70049214,-0.00007843,0.00006376,-2670.12646484,0,0,0
1314271026.75243878,-0.00007848,0.00006371,-2670.60693359,0,0,0
1314271026.80049610,-0.00007842,0.00006376,-2671.08789062,0,0,0
1314271026.84918642,-0.00007848,0.00006371,-2671.56835938,0,0,0
1314271026.89851975,-0.00007842,0.00006376,-2672.04931641,0,0,0
1314271026.94952941,-0.00007847,0.00006371,-2672.53002930,0,0,0
1314271027.00050616,-0.00007841,0.00006376,-2673.01123047,0,0,0
1314271027.04846597,-0.00007847,0.00006370,-2673.49169922,0,0,0
1314271027.10064745,-0.00007841,0.00006375,-2673.97314453,0,0,0
1314271027.14955258,-0.00007846,0.00006370,-2674.45385742,0,0,0
1314271027.20045662,-0.00007840,0.00006375,-2674.93505859,0,0,0
1314271027.25031805,-0.00007846,0.00006370,-2675.41577148,0,0,0
1314271027.29840970,-0.00007840,0.00006375,-2675.89721680,0,0,0
1314271027.34948921,-0.00007845,0.00006370,-2676.37792969,0,0,0
1314271027.40049696,-0.00007839,0.00006375,-2676.85937500,0,0,0
1314271027.43937755,-0.00007845,0.00006370,-2677.34033203,0,0,0
1314271027.50047922,-0.00007845,0.00006370,-2677.72509766,0,0,0
1314271027.55021000,-0.00007844,0.00006369,-2678.30273438,0,0,0
1314271027.59247088,-0.00007838,0.00006374,-2678.78442383,0,0,0
1314271027.64958787,-0.00007838,0.00006374,-2679.16918945,0,0,0
1314271027.69824934,-0.00007838,0.00006374,-2679.74682617,0,0,0
1314271027.74846768,-0.00007843,0.00006369,-2680.22802734,0,0,0
1314271027.80077791,-0.00007837,0.00006374,-2680.70971680,0,0,0
1314271027.85247231,-0.00007843,0.00006369,-2681.19091797,0,0,0
1314271027.90057015,-0.00007837,0.00006374,-2681.67260742,0,0,0
1314271027.95014238,-0.00007842,0.00006369,-2682.15380859,0,0,0
1314271028.00102210,-0.00007836,0.00006374,-2682.63574219,0,0,0
1314271028.04959440,-0.00007842,0.00006368,-2683.11694336,0,0,0
1314271028.10010552,-0.00007836,0.00006373,-2683.59887695,0,0,0
1314271028.14950871,-0.00007841,0.00006368,-2684.08007812,0,0,0
1314271028.20047212,-0.00007835,0.00006373,-2684.56225586,0,0,0
1314271028.25258851,-0.00007841,0.00006368,-2685.04345703,0,0,0
1314271028.30048442,-0.00007835,0.00006373,-2685.52563477,0,0,0
1314271028.34998775,-0.00007840,0.00006368,-2686.00708008,0,0,0
1314271028.40066648,-0.00007834,0.00006373,-2686.48901367,0,0,0
1314271028.45258164,-0.00007840,0.00006368,-2686.97045898,0,0,0
1314271028.50209403,-0.00007834,0.00006373,-2687.45263672,0,0,0
1314271028.55272150,-0.00007839,0.00006367,-2687.93408203,0,0,0
1314271028.60058045,-0.00007833,0.00006372,-2688.41625977,0,0,0
1314271028.65246177,-0.00007839,0.00006367,-2688.89794922,0,0,0
1314271028.70053792,-0.00007833,0.00006372,-2689.38012695,0,0,0
1314271028.75243497,-0.00007838,0.00006367,-2689.86181641,0,0,0
1314271028.80058503,-0.00007832,0.00006372,-2690.34423828,0,0,0
1314271028.85360813,-0.00007838,0.00006367,-2690.82592773,0,0,0
1314271028.89882779,-0.00007832,0.00006372,-2691.30834961,0,0,0
1314271028.94986081,-0.00007837,0.00006367,-2691.79003906,0,0,0
1314271029.00102329,-0.00007831,0.00006372,-2692.27246094,0,0,0
1314271029.05247641,-0.00007837,0.00006366,-2692.75439453,0,0,0
1314271029.10061622,-0.00007831,0.00006371,-2693.23681641,0,0,0
1314271029.14970613,-0.00007836,0.00006366,-2693.71875000,0,0,0
1314271029.20147467,-0.00007830,0.00006371,-2694.20141602,0,0,0
1314271029.25245690,-0.00007836,0.00006366,-2694.68334961,0,0,0
1314271029.30170870,-0.00007830,0.00006371,-2695.16577148,0,0,0
1314271029.34972882,-0.00007835,0.00006366,-2695.64794922,0,0,0
1314271029.40085578,-0.00007829,0.00006371,-2696.13061523,0,0,0
1314271029.45260763,-0.00007835,0.00006366,-2696.61254883,0,0,0
1314271029.50054359,-0.00007829,0.00006371,-2697.09545898,0,0,0
1314271029.54956985,-0.00007834,0.00006365,-2697.57763672,0,0,0
1314271029.60043669,-0.00007828,0.00006371,-2698.06030273,0,0,0
1314271029.64950395,-0.00007834,0.00006365,-2698.54248047,0,0,0
1314271029.70156097,-0.00007828,0.00006370,-2699.02539062,0,0,0
1314271029.75350046,-0.00007833,0.00006365,-2699.50756836,0,0,0
1314271029.80059266,-0.00007827,0.00006370,-2699.99047852,0,0,0
1314271029.85247612,-0.00007833,0.00006365,-2700.47290039,0,0,0
1314271029.90046430,-0.00007827,0.00006370,-2700.95581055,0,0,0
1314271029.94964123,-0.00007832,0.00006365,-2701.43847656,0,0,0
1314271030.00051880,-0.00007826,0.00006370,-2701.92138672,0,0,0
1314271030.04855990,-0.00007832,0.00006364,-2702.40380859,0,0,0
1314271030.10162616,-0.00007826,0.00006370,-2702.88696289,0,0,0
1314271030.15029287,-0.00007831,0.00006364,-2703.36962891,0,0,0
1314271030.20045161,-0.00007825,0.00006369,-2703.85253906,0,0,0
1314271030.24958849,-0.00007831,0.00006364,-2704.33520508,0,0,0
1314271030.30048871,-0.00007825,0.00006369,-2704.81835938,0,0,0
1314271030.34966326,-0.00007830,0.00006364,-2705.30102539,0,0,0
1314271030.40046287,-0.00007824,0.00006369,-2705.78417969,0,0,0
1314271030.44849324,-0.00007830,0.00006364,-2706.26684570,0,0,0
1314271030.50045991,-0.00007824,0.00006369,-2706.75024414,0,0,0
1314271030.55013084,-0.00007829,0.00006364,-2707.23291016,0,0,0
